Location: Dannhausen
(51.8650°N, 10.1026°E)
Time: 09:21:05
(UTC+00:00)

Cosmos 1076 Rocket - Pass Details

Date: 09 April 2020
Orbit: 590 x 612 km, 82.5° (Epoch: 24 May)

Event Time Altitude Azimuth Distance (km) Brightness Sun altitude
Rises 19:37:17 0° 352° (N) 2,850 7.6 -13.5°
Reaches altitude 10° 19:39:32 10° 356° (N) 1,946 6.6 -13.8°
Maximum altitude 19:43:47 58° 76° (ENE) 703 3.6 -14.3°
Enters shadow 19:46:23 22° 149° (SSE) 1,320 4.7 -14.7°
